DW5868 Weather Reports


time (UTC)temp
F
wind
direction
speed
knots
gust
knots
rain 1hr
in
rain 24hr
in
rain mn
in
humidity
%
barometer
mb
20260902043008 48 269 5.2 18.2 0.00 0.00 0.00 41 1007.1
20260902041605 46 284 4.3 18.2 0.00 0.00 0.00 52 1007.1
20260902040001 47 289 7.8 26.1 0.00 0.00 0.00 48 1007.1
20260902034606 46 19 6.1 19.1 0.00 0.00 0.00 56 1006.8
20260902033100 47 277 12.2 29.5 0.00 0.00 0.00 55 1006.9
20260902031558 47 282 5.2 26.1 0.00 0.00 0.00 54 1006.3
20260902030058 47 198 5.2 17.4 0.00 0.00 0.00 54 1006.4
20260902024559 47 246 7.0 20.0 0.00 0.00 0.00 53 1006.3
20260902023058 48 227 5.2 15.6 0.00 0.00 0.00 51 1006.2
20260902021619 49 237 4.3 13.9 0.00 0.00 0.00 49 1006.3
20260902014610 51 286 4.3 14.8 0.00 0.00 0.00 45 1006.1
20260902013100 52 150 4.3 11.3 0.00 0.00 0.00 43 1006.0
20260902011603 54 270 5.2 13.9 0.00 0.00 0.00 41 1005.9
20260902010058 55 259 2.6 14.8 0.00 0.00 0.00 40 1006.3
20260902004557 56 240 6.1 15.6 0.00 0.00 0.00 38 1006.3
20260902003057 56 268 5.2 14.8 0.00 0.00 0.00 37 1006.3
20260902001556 56 295 8.7 17.4 0.00 0.00 0.00 37 1006.5
20260901234557 57 229 3.5 24.3 0.00 0.00 0.00 37 1006.5
20260901233107 57 246 7.0 17.4 0.00 0.00 0.00 37 1006.4
20260901231556 58 279 10.4 23.5 0.00 0.00 0.00 35 1006.5
20260901230058 58 281 8.7 19.1 0.00 0.00 0.00 35 1006.4
20260901224555 59 267 5.2 18.2 0.00 0.00 0.00 34 1006.4
20260901223108 59 279 7.8 17.4 0.00 0.00 0.00 33 1006.5
20260901221553 60 267 3.5 16.5 0.00 0.00 0.00 33 1006.5
20260901220042 59 52 5.2 16.5 0.00 0.00 0.00 33 1006.6
20260901220005 59 227 5.2 16.5 0.00 0.00 0.00 32 1006.5
20260901213003 59 214 7.0 20.0 0.00 0.00 0.00 32 1006.3
20260901211504 58 290 8.7 20.0 0.00 0.00 0.00 32 1006.5
20260901210003 59 301 9.6 19.1 0.00 0.00 0.00 32 1006.6
20260901204503 59 260 6.1 17.4 0.00 0.00 0.00 31 1006.7
20260901203015 59 273 5.2 13.9 0.00 0.00 0.00 30 1006.9
20260901201505 60 273 4.3 19.1 0.00 0.00 0.00 31 1006.7
20260901200005 60 277 2.6 17.4 0.00 0.00 0.00 31 1006.6
20260901194505 61 232 6.1 15.6 0.00 0.00 0.00 30 1006.6
20260901193059 60 30 4.3 14.8 0.00 0.00 0.00 31 1006.7
20260901191606 60 241 6.1 13.0 0.00 0.00 0.00 31 1006.6
20260901190112 60 248 5.2 13.9 0.00 0.00 0.00 31 1006.9
20260901184559 59 259 2.6 12.2 0.00 0.00 0.00 32 1006.7
20260901183053 58 269 5.2 15.6 0.00 0.00 0.00 32 1006.5
20260901181554 57 269 10.4 23.5 0.00 0.00 0.00 33 1006.8
20260901180050 57 241 6.1 15.6 0.00 0.00 0.00 35 1006.8
20260901174601 56 46 2.6 17.4 0.00 0.00 0.00 38 1006.6
20260901173049 55 275 8.7 16.5 0.00 0.00 0.00 37 1006.5
20260901171548 56 280 6.1 16.5 0.00 0.00 0.00 37 1006.3
20260901170044 55 304 6.1 15.6 0.00 0.00 0.00 39 1005.8
20260901164546 54 226 6.1 16.5 0.00 0.00 0.00 41 1005.8
20260901163042 53 269 3.5 15.6 0.00 0.00 0.00 42 1005.7
20260901161542 53 296 6.1 13.9 0.00 0.00 0.00 42 1005.7
20260901160040 55 232 0.9 6.1 0.00 0.00 0.00 41 1005.7
20260901154536 52 260 4.3 12.2 0.00 0.00 0.00 46 1005.4
20260901153038 51 268 4.3 12.2 0.00 0.00 0.00 48 1005.1
20260901151534 50 286 4.3 13.9 0.00 0.00 0.00 54 1005.0
20260901150034 49 261 4.3 21.7 0.00 0.00 0.00 59 1004.8
20260901144531 48 275 4.3 18.2 0.00 0.00 0.00 62 1004.6
20260901143037 48 305 2.6 13.9 0.00 0.00 0.00 63 1004.5
20260901141530 47 283 5.2 18.2 0.00 0.00 0.00 64 1004.3
20260901140030 47 288 2.6 13.9 0.00 0.00 0.00 63 1003.9
20260901134524 0 0.0 0.0 0.00 0.00 0.00 1003.7
20260901133031 0 0.0 0.0 0.00 0.00 0.00 1003.6
20260901131517 0 0.0 0.0 0.00 0.00 0.00 1003.9
20260901130013 0 0.0 0.0 0.00 0.00 0.00 1004.0
20260901124509 0 0.0 0.0 0.00 0.00 0.00 1004.3
20260901123007 0 0.0 0.0 0.00 0.00 0.00 1004.4
20260901121503 47 172 2.6 10.4 0.00 0.00 0.00 61 1004.3
20260901120121 47 271 4.3 10.4 0.00 0.00 0.00 60 1004.3
20260901114559 48 84 4.3 11.3 0.00 0.00 0.00 58 1004.4
20260901113100 48 277 1.7 15.6 0.00 0.00 0.00 58 1004.4
20260901111556 48 302 3.5 11.3 0.00 0.00 0.00 58 1004.4
20260901110058 49 236 2.6 14.8 0.00 0.00 0.00 58 1004.2
20260901104600 49 255 4.3 12.2 0.00 0.00 0.00 58 1004.2
20260901103050 49 275 3.5 11.3 0.00 0.00 0.00 58 1004.2
20260901101553 49 298 5.2 16.5 0.00 0.00 0.00 58 1004.0
20260901100048 49 264 4.3 15.6 0.00 0.00 0.00 59 1004.0
20260901094546 49 304 4.3 13.9 0.00 0.00 0.00 59 1003.9
20260901093051 49 284 4.3 10.4 0.00 0.00 0.00 60 1003.9
20260901091554 50 214 3.5 9.6 0.00 0.00 0.00 59 1004.2
20260901090040 50 265 1.7 10.4 0.00 0.00 0.00 58 1004.1
20260901084538 51 148 5.2 12.2 0.00 0.00 0.00 58 1004.3
20260901083038 51 250 4.3 13.0 0.00 0.00 0.00 58 1004.3
20260901081535 51 241 2.6 13.9 0.00 0.00 0.00 57 1004.4
20260901080035 51 277 3.5 12.2 0.00 0.00 0.00 58 1004.6
20260901074533 52 236 2.6 7.8 0.00 0.00 0.00 58 1004.7
20260901073027 52 254 1.7 5.2 0.00 0.00 0.00 58 1004.7
20260901071529 52 257 2.6 7.8 0.00 0.00 0.00 57 1004.8
20260901070027 52 275 3.5 13.9 0.00 0.00 0.00 57 1004.7
20260901064527 53 269 7.0 13.9 0.00 0.00 0.00 56 1004.8
20260901063027 53 276 3.5 9.6 0.00 0.00 0.00 56 1004.7
20260901061526 53 235 3.5 12.2 0.00 0.00 0.00 56 1004.5
20260901060025 53 52 2.6 7.0 0.00 0.00 0.00 55 1004.8
20260901054525 53 233 4.3 13.0 0.00 0.00 0.00 55 1004.9
20260901053024 53 257 5.2 11.3 0.00 0.00 0.00 56 1004.9
20260901051524 52 284 3.5 14.8 0.00 0.00 0.00 55 1004.6
20260901050024 52 283 4.3 9.6 0.00 0.00 0.00 56 1004.4
20260901044523 52 218 4.3 9.6 0.00 0.00 0.00 56 1004.3